Date String (YYYY-MM-DD hh:mm:ss) UTC,Instrument flags,Ambient pressure (hPa),Sample flow (lpm),Bypass flow (lpm),Sample temperature (°C),Ambient temperature (°C),ASC tube jacket temperature (°C),LED temperature (°C),Box temperature (°C),Sample RH (%),Span deviation,Mass concentration (μg/m³),Mass concentration (μg/m³),Mass concentration (μg/m³)
DateTimeUTC,F1_M11,P_M11,Q1_M11,Q2_M11,T1_M11,T2_M11,T3_M11,T4_M11,T5_M11,U1_M11,ZSPAN_M11,X2_M11,X0_M11,X1_M11
2023-02-21 06:00:00,,0814.9,5.00,0.00,21.9,20.2,00.0,30.9,23.5,13.3,0000.0,0000.88,0001.65,0000.54
2023-02-21 06:01:00,,0814.9,4.99,0.00,21.9,20.2,00.0,30.9,23.4,13.4,0000.0,0000.89,0001.70,0000.54
2023-02-21 06:02:00,,0814.9,5.01,0.00,21.8,20.2,00.0,30.9,23.4,13.4,0000.0,0000.85,0001.63,0000.53
2023-02-21 06:03:00,,0814.9,4.98,0.00,21.8,20.2,00.0,30.8,23.4,13.4,0000.0,0000.83,0001.61,0000.52
2023-02-21 06:04:00,,0815.2,5.02,0.00,21.9,21.0,00.0,30.8,23.6,13.3,0000.0,0000.83,0001.63,0000.53
2023-02-21 06:05:00,,0815.0,4.99,0.00,22.0,22.3,00.0,30.7,24.0,13.3,0000.0,0000.85,0001.66,0000.52
2023-02-21 06:06:00,,0815.4,4.99,0.00,22.1,23.2,00.0,30.8,24.2,13.2,0000.0,0000.87,0001.71,0000.53
2023-02-21 06:07:00,,0815.1,5.01,0.00,22.2,22.6,00.0,30.9,24.2,13.2,0000.0,0000.87,0001.73,0000.54
2023-02-21 06:08:00,,0815.1,5.02,0.00,22.2,22.0,00.0,30.9,24.1,13.2,0000.0,0000.89,0001.79,0000.55
2023-02-21 06:09:00,,0815.1,5.00,0.00,22.2,21.7,00.0,31.0,24.0,13.2,0000.0,0000.90,0001.85,0000.55
2023-02-21 06:10:00,,0815.0,5.00,0.00,22.2,21.4,00.0,31.0,23.9,13.2,0000.0,0000.92,0001.90,0000.56
2023-02-21 06:11:00,,0815.1,5.00,0.00,22.2,21.2,00.0,31.0,23.8,13.3,0000.0,0000.95,0002.08,0000.57
2023-02-21 06:12:00,,0815.0,5.01,0.00,22.1,21.0,00.0,31.0,23.8,13.3,0000.0,0000.93,0002.03,0000.58
2023-02-21 06:13:00,,0814.9,5.00,0.00,22.1,20.8,00.0,31.0,23.7,13.3,0000.0,0000.94,0002.11,0000.58
2023-02-21 06:14:00,,0814.9,4.99,0.00,22.1,20.7,00.0,31.0,23.7,13.3,0000.0,0000.96,0002.41,0000.57
2023-02-21 06:15:00,,0814.8,5.02,0.00,22.1,20.6,00.0,31.0,23.7,13.2,0000.0,0000.99,0002.58,0000.57
2023-02-21 06:16:00,,0814.9,5.00,0.00,22.0,20.6,00.0,31.0,23.6,13.2,0000.0,0001.00,0002.63,0000.57
2023-02-21 06:17:00,,0814.9,5.01,0.00,22.0,20.5,00.0,31.0,23.6,13.3,0000.0,0000.99,0002.57,0000.57
2023-02-21 06:18:00,,0814.9,4.99,0.00,22.0,20.4,00.0,31.0,23.5,13.3,0000.0,0000.96,0002.47,0000.56
2023-02-21 06:19:00,,0814.8,4.99,0.00,22.0,20.3,00.0,31.0,23.5,13.3,0000.0,0000.95,0002.46,0000.56
2023-02-21 06:20:00,,0814.8,5.00,0.00,21.9,20.3,00.0,31.0,23.4,13.2,0000.0,0000.94,0002.37,0000.55
2023-02-21 06:21:00,,0814.9,5.00,0.00,21.9,20.2,00.0,30.9,23.4,13.2,0000.0,0000.91,0002.23,0000.55
2023-02-21 06:22:00,,0814.9,5.00,0.00,21.9,21.0,00.0,30.9,23.6,13.3,0000.0,0000.88,0001.98,0000.54
2023-02-21 06:23:00,,0815.0,4.98,0.00,22.0,22.3,00.0,30.8,24.0,13.3,0000.0,0000.87,0001.92,0000.54
2023-02-21 06:24:00,,0815.0,5.01,0.00,22.2,23.2,00.0,30.8,24.3,13.2,0000.0,0000.91,0002.52,0000.54
2023-02-21 06:25:00,,0815.0,4.96,0.00,22.3,22.8,00.0,30.9,24.3,13.2,0000.0,0000.92,0002.49,0000.54
2023-02-21 06:26:00,,0815.1,5.01,0.00,22.3,22.2,00.0,31.0,24.1,13.0,0000.0,0000.90,0002.40,0000.54
2023-02-21 06:27:00,,0814.9,5.00,0.00,22.3,21.7,00.0,31.0,24.0,13.0,0000.0,0000.87,0002.27,0000.53
2023-02-21 06:28:00,,0814.9,5.00,0.00,22.2,21.4,00.0,31.0,24.0,12.8,0000.0,0000.85,0002.24,0000.53
2023-02-21 06:29:00,,0814.9,5.00,0.00,22.2,21.2,00.0,31.1,23.9,13.0,0000.0,0000.83,0002.25,0000.51
2023-02-21 06:30:00,,0814.9,4.99,0.00,22.2,21.0,00.0,31.1,23.9,13.1,0000.0,0000.86,0002.28,0000.52
2023-02-21 06:31:00,,0814.9,4.99,0.00,22.2,20.9,00.0,31.1,23.8,13.2,0000.0,0000.85,0002.28,0000.52
2023-02-21 06:32:00,,0815.0,5.00,0.00,22.2,20.7,00.0,31.1,23.8,13.2,0000.0,0000.85,0002.30,0000.51
2023-02-21 06:33:00,,0815.1,5.02,0.00,22.1,20.6,00.0,31.1,23.7,13.1,0000.0,0000.84,0002.28,0000.50
2023-02-21 06:34:00,,0815.2,5.01,0.00,22.1,20.5,00.0,31.1,23.7,13.0,0000.0,0000.84,0002.29,0000.50
2023-02-21 06:35:00,,0815.1,4.99,0.00,22.0,20.5,00.0,31.1,23.6,13.1,0000.0,0000.83,0001.72,0000.49
2023-02-21 06:36:00,,0815.2,5.00,0.00,22.0,20.4,00.0,31.0,23.6,13.0,0000.0,0000.82,0001.52,0000.50
2023-02-21 06:37:00,,0815.0,5.00,0.00,22.0,20.4,00.0,31.0,23.6,12.9,0000.0,0000.81,0001.43,0000.50
2023-02-21 06:38:00,,0815.1,5.00,0.00,22.0,20.3,00.0,31.0,23.5,13.0,0000.0,0000.79,0001.33,0000.51
2023-02-21 06:39:00,,0815.1,5.00,0.00,21.9,20.2,00.0,31.0,23.5,13.1,0000.0,0000.76,0001.28,0000.50
2023-02-21 06:40:00,,0814.9,4.98,0.00,21.9,20.2,00.0,31.0,23.5,13.2,0000.0,0000.76,0001.27,0000.50
2023-02-21 06:41:00,,0814.9,5.01,0.00,21.9,20.7,00.0,30.9,23.6,13.3,0000.0,0000.73,0001.23,0000.50
2023-02-21 06:42:00,,0814.8,5.01,0.00,22.0,21.9,00.0,30.8,23.9,13.3,0000.0,0000.79,0001.34,0000.49
2023-02-21 06:43:00,,0814.8,4.99,0.00,22.2,22.9,00.0,30.9,24.2,13.3,0000.0,0000.83,0001.41,0000.50
2023-02-21 06:44:00,,0815.1,4.99,0.00,22.3,22.7,00.0,30.9,24.3,13.2,0000.0,0000.83,0001.41,0000.52
2023-02-21 06:45:00,,0814.9,5.01,0.00,22.3,22.2,00.0,31.0,24.2,13.1,0000.0,0000.81,0001.37,0000.52
2023-02-21 06:46:00,,0814.8,4.96,0.00,22.3,21.7,00.0,31.0,24.1,13.2,0000.0,0000.82,0001.41,0000.53
2023-02-21 06:47:00,,0814.8,5.01,0.00,22.3,21.4,00.0,31.1,24.0,13.1,0000.0,0000.84,0001.46,0000.53
2023-02-21 06:48:00,,0814.9,5.00,0.00,22.2,21.3,00.0,31.1,23.9,13.1,0000.0,0000.86,0001.54,0000.53
2023-02-21 06:49:00,,0814.8,5.00,0.00,22.2,21.1,00.0,31.1,23.9,13.2,0000.0,0000.88,0001.58,0000.54
2023-02-21 06:50:00,,0814.9,4.99,0.00,22.2,20.9,00.0,31.1,23.9,13.2,0000.0,0000.92,0001.67,0000.55
2023-02-21 06:51:00,,0814.9,5.00,0.00,22.2,20.8,00.0,31.1,23.8,13.2,0000.0,0000.92,0001.65,0000.56
2023-02-21 06:52:00,,0814.9,5.01,0.00,22.2,20.7,00.0,31.1,23.8,13.2,0000.0,0000.94,0001.69,0000.56
2023-02-21 06:53:00,,0814.9,5.00,0.00,22.1,20.6,00.0,31.1,23.7,13.0,0000.0,0000.89,0001.55,0000.56
2023-02-21 06:54:00,,0814.9,5.00,0.00,22.1,20.5,00.0,31.1,23.7,12.9,0000.0,0000.85,0001.41,0000.55
2023-02-21 06:55:00,,0814.8,5.00,0.00,22.1,20.4,00.0,31.0,23.6,13.1,0000.0,0000.83,0001.36,0000.54
2023-02-21 06:56:00,,0814.8,4.98,0.00,22.0,20.3,00.0,31.0,23.6,13.2,0000.0,0000.83,0001.40,0000.54
2023-02-21 06:57:00,,0814.8,5.01,0.00,22.0,20.3,00.0,31.0,23.5,13.3,0000.0,0000.82,0001.39,0000.55
2023-02-21 06:58:00,,0814.9,4.99,0.00,21.9,20.2,00.0,31.0,23.4,13.3,0000.0,0000.83,0001.38,0000.56
2023-02-21 06:59:00,,0814.9,5.02,0.00,21.9,20.6,00.0,31.0,23.6,13.4,0000.0,0000.84,0001.39,0000.57
